Stündliche Wetter Abuzere

Heute, 17 Juni, Donnerstag

Zeit Temperatur Niederschläge Wind Luftdruck Luftfeuchtigkeit
00:00 +13°C° 0 mm 2 m/S 750 mmHg 78%
01:00 +12°C° 0 mm 2 m/S 751 mmHg 78%
02:00 +12°C° 0 mm 2 m/S 751 mmHg 78%
03:00 +12°C° 0 mm 2 m/S 751 mmHg 78%
04:00 +12°C° 0 mm 2 m/S 751 mmHg 78%
05:00 +13°C° 0 mm 1 m/S 752 mmHg 79%
06:00 +15°C° 0 mm 2 m/S 752 mmHg 74%
07:00 +17°C° 0 mm 2 m/S 752 mmHg 68%
08:00 +19°C° 0 mm 2 m/S 752 mmHg 63%
09:00 +20°C° 0 mm 2 m/S 753 mmHg 59%
10:00 +21°C° 0 mm 2 m/S 753 mmHg 55%
11:00 +24°C° 0 mm 2 m/S 753 mmHg 51%
12:00 +24°C° 0 mm 2 m/S 753 mmHg 49%
13:00 +25°C° 0 mm 1 m/S 753 mmHg 48%
14:00 +25°C° 0 mm 1 m/S 753 mmHg 47%
15:00 +25°C° 0 mm 1 m/S 753 mmHg 49%
16:00 +25°C° 0 mm 1 m/S 753 mmHg 51%
17:00 +25°C° 0 mm 1 m/S 753 mmHg 53%
18:00 +23°C° 0 mm 1 m/S 753 mmHg 60%
19:00 +22°C° 0 mm 1 m/S 753 mmHg 68%
20:00 +20°C° 0 mm 1 m/S 753 mmHg 75%
21:00 +19°C° 0 mm 1 m/S 753 mmHg 78%
22:00 +18°C° 0 mm 1 m/S 753 mmHg 81%
23:00 +16°C° 0 mm 1 m/S 754 mmHg 83%

Morgen, 18 Juni, Freitag

Zeit Temperatur Niederschläge Wind Luftdruck Luftfeuchtigkeit
00:00 +16°C° 0 mm 1 m/S 754 mmHg 84%
01:00 +15°C° 0 mm 1 m/S 754 mmHg 85%
02:00 +15°C° 0 mm 1 m/S 754 mmHg 86%
03:00 +15°C° 0 mm 1 m/S 754 mmHg 86%
04:00 +15°C° 0 mm 1 m/S 754 mmHg 86%
05:00 +15°C° 0 mm 1 m/S 754 mmHg 86%
06:00 +18°C° 0 mm 1 m/S 754 mmHg 80%
07:00 +19°C° 0 mm 2 m/S 754 mmHg 73%
08:00 +21°C° 0 mm 2 m/S 754 mmHg 67%
09:00 +23°C° 0 mm 2 m/S 754 mmHg 63%
10:00 +24°C° 0 mm 3 m/S 754 mmHg 58%
11:00 +25°C° 0 mm 3 m/S 754 mmHg 54%
12:00 +26°C° 0 mm 3 m/S 754 mmHg 53%
13:00 +26°C° 0 mm 3 m/S 754 mmHg 53%
14:00 +26°C° 0 mm 3 m/S 754 mmHg 52%
15:00 +26°C° 0 mm 3 m/S 753 mmHg 55%
16:00 +26°C° 0 mm 3 m/S 753 mmHg 57%
17:00 +26°C° 0 mm 3 m/S 753 mmHg 60%
18:00 +24°C° 0 mm 3 m/S 753 mmHg 67%
19:00 +21°C° 0 mm 3 m/S 753 mmHg 74%
20:00 +20°C° 0 mm 2 m/S 753 mmHg 82%
21:00 +19°C° 0 mm 2 m/S 753 mmHg 83%
22:00 +18°C° 0 mm 2 m/S 753 mmHg 85%
23:00 +16°C° 0 mm 2 m/S 753 mmHg 87%

übermorgen, 19 Juni, Samstag

Zeit Temperatur Niederschläge Wind Luftdruck Luftfeuchtigkeit
00:00 +16°C° 0 mm 2 m/S 753 mmHg 89%
01:00 +16°C° 0 mm 2 m/S 753 mmHg 90%
02:00 +15°C° 0 mm 2 m/S 753 mmHg 92%
03:00 +15°C° 0 mm 2 m/S 753 mmHg 91%
04:00 +16°C° 0 mm 2 m/S 753 mmHg 91%
05:00 +16°C° 0 mm 2 m/S 753 mmHg 90%
06:00 +18°C° 0 mm 2 m/S 753 mmHg 84%
07:00 +20°C° 0 mm 2 m/S 753 mmHg 79%
08:00 +21°C° 0 mm 3 m/S 753 mmHg 73%
09:00 +24°C° 0 mm 3 m/S 753 mmHg 68%
10:00 +25°C° 0 mm 3 m/S 753 mmHg 64%
11:00 +26°C° 0 mm 3 m/S 753 mmHg 60%
12:00 +26°C° 0 mm 3 m/S 753 mmHg 58%
13:00 +27°C° 0 mm 3 m/S 752 mmHg 56%
14:00 +27°C° 0 mm 3 m/S 752 mmHg 54%
15:00 +27°C° 0 mm 3 m/S 752 mmHg 57%
16:00 +27°C° 0 mm 3 m/S 752 mmHg 59%
17:00 +27°C° 0 mm 3 m/S 751 mmHg 62%
18:00 +25°C° 0 mm 3 m/S 751 mmHg 69%
19:00 +22°C° 0 mm 3 m/S 751 mmHg 76%
20:00 +21°C° 0 mm 3 m/S 751 mmHg 84%
21:00 +20°C° 0 mm 3 m/S 751 mmHg 86%
22:00 +19°C° 0 mm 3 m/S 751 mmHg 89%
23:00 +18°C° 0 mm 3 m/S 751 mmHg 91%

20 Juni, Sonntag

Zeit Temperatur Niederschläge Wind Luftdruck Luftfeuchtigkeit
00:00 +17°C° 0 mm 2 m/S 751 mmHg 92%
01:00 +17°C° 0 mm 2 m/S 751 mmHg 93%
02:00 +17°C° 0 mm 2 m/S 751 mmHg 94%
03:00 +17°C° 0 mm 2 m/S 751 mmHg 94%
04:00 +17°C° 0 mm 2 m/S 751 mmHg 93%
05:00 +18°C° 0 mm 2 m/S 751 mmHg 93%
06:00 +19°C° 0 mm 2 m/S 751 mmHg 87%
07:00 +21°C° 0 mm 2 m/S 751 mmHg 82%
08:00 +24°C° 0 mm 3 m/S 751 mmHg 76%
09:00 +25°C° 0.1 mm 3 m/S 751 mmHg 75%
10:00 +25°C° 0.1 mm 3 m/S 751 mmHg 73%
11:00 +26°C° 0.1 mm 3 m/S 751 mmHg 72%
12:00 +26°C° 0.2 mm 3 m/S 750 mmHg 68%
13:00 +27°C° 0.2 mm 3 m/S 750 mmHg 65%
14:00 +28°C° 0.2 mm 3 m/S 750 mmHg 62%
15:00 +28°C° 0.3 mm 3 m/S 750 mmHg 65%
16:00 +28°C° 0.3 mm 3 m/S 749 mmHg 67%
17:00 +27°C° 0.3 mm 3 m/S 749 mmHg 70%
18:00 +26°C° 0.5 mm 2 m/S 749 mmHg 75%
19:00 +25°C° 0.5 mm 2 m/S 749 mmHg 81%
20:00 +23°C° 0.5 mm 2 m/S 749 mmHg 86%
21:00 +21°C° 0 mm 2 m/S 749 mmHg 88%
22:00 +21°C° 0 mm 2 m/S 749 mmHg 91%
23:00 +20°C° 0 mm 2 m/S 749 mmHg 94%

21 Juni, Montag

Zeit Temperatur Niederschläge Wind Luftdruck Luftfeuchtigkeit
00:00 +19°C° 0 mm 2 m/S 749 mmHg 94%
01:00 +19°C° 0 mm 2 m/S 749 mmHg 94%
02:00 +18°C° 0 mm 2 m/S 749 mmHg 94%
03:00 +18°C° 0 mm 2 m/S 749 mmHg 93%
04:00 +19°C° 0 mm 2 m/S 749 mmHg 93%
05:00 +20°C° 0 mm 1 m/S 749 mmHg 92%
06:00 +20°C° 0 mm 2 m/S 749 mmHg 87%
07:00 +23°C° 0 mm 2 m/S 750 mmHg 81%
08:00 +24°C° 0 mm 3 m/S 750 mmHg 75%
09:00 +25°C° 0 mm 3 m/S 749 mmHg 70%
10:00 +27°C° 0 mm 4 m/S 749 mmHg 64%
11:00 +28°C° 0 mm 4 m/S 749 mmHg 58%
12:00 +28°C° 0 mm 4 m/S 749 mmHg 56%
13:00 +29°C° 0 mm 4 m/S 749 mmHg 54%
14:00 +29°C° 0 mm 4 m/S 749 mmHg 53%
15:00 +29°C° 0 mm 4 m/S 749 mmHg 57%
16:00 +28°C° 0 mm 4 m/S 748 mmHg 62%
17:00 +28°C° 0 mm 3 m/S 748 mmHg 66%
18:00 +26°C° 0 mm 3 m/S 748 mmHg 72%
19:00 +25°C° 0 mm 3 m/S 748 mmHg 78%
20:00 +24°C° 0 mm 3 m/S 748 mmHg 84%
21:00 +22°C° 0 mm 3 m/S 748 mmHg 86%
22:00 +21°C° 0 mm 3 m/S 748 mmHg 88%
23:00 +20°C° 0 mm 2 m/S 748 mmHg 90%

22 Juni, Dienstag

Zeit Temperatur Niederschläge Wind Luftdruck Luftfeuchtigkeit
00:00 +20°C° 0 mm 2 m/S 748 mmHg 91%
01:00 +19°C° 0 mm 2 m/S 748 mmHg 93%
02:00 +19°C° 0 mm 3 m/S 748 mmHg 95%
03:00 +19°C° 0 mm 3 m/S 748 mmHg 94%
04:00 +20°C° 0 mm 3 m/S 748 mmHg 94%
05:00 +20°C° 0 mm 3 m/S 748 mmHg 94%
06:00 +22°C° 0 mm 3 m/S 748 mmHg 87%
07:00 +23°C° 0 mm 4 m/S 748 mmHg 81%
08:00 +26°C° 0 mm 5 m/S 748 mmHg 75%
09:00 +27°C° 0 mm 5 m/S 748 mmHg 70%
10:00 +28°C° 0 mm 5 m/S 749 mmHg 64%
11:00 +29°C° 0 mm 6 m/S 749 mmHg 58%
12:00 +30°C° 0 mm 5 m/S 749 mmHg 57%
13:00 +30°C° 0 mm 5 m/S 749 mmHg 55%
14:00 +32°C° 0 mm 5 m/S 749 mmHg 54%
15:00 +32°C° 0 mm 5 m/S 749 mmHg 58%
16:00 +30°C° 0 mm 5 m/S 748 mmHg 61%
17:00 +30°C° 0 mm 4 m/S 748 mmHg 65%
18:00 +28°C° 0 mm 4 m/S 748 mmHg 71%
19:00 +27°C° 0 mm 4 m/S 748 mmHg 77%
20:00 +25°C° 0 mm 3 m/S 748 mmHg 83%
21:00 +24°C° 0 mm 3 m/S 749 mmHg 86%
22:00 +22°C° 0 mm 3 m/S 749 mmHg 88%
23:00 +21°C° 0 mm 3 m/S 749 mmHg 91%
Mehr zeigen

Wir brauchen deine Erlaubnis

Meteoprog und unser Service Anbieter werden persönliche Daten aufbewahren, so wie Cookies, Geräte Bezeichnung oder ähnliche Technologien von deinem Gerät und Prozess, so wie Persönliche Daten Inhalte und Werbungen, genauso wie social Media und den Verkehr zu analysieren.

  • Aufbewahrung und/oder Zugang zu deiner Geräte Informationen.

    Cookies, Geräte Bezeichnung oder andere Informationen, können aufbewahrt oder Zugang zu deinem Gerät erhalten, für den Grund, der oben angegeben wird.

  • Personalisierte Werbung und Inhalte, Messungen, Einblick in das Publikum und Produkt Entwicklung.

    Werbungen und Inhalte können personalisiert werden, basierend auf ein Profil. Mehr Daten können besser personalisierte Werbungen und Inhalte hinzufügen. Werbung und Inhalte können gezeigt und gemessen werden. Einblicke über das Publikum, welche die Werbung gesehen haben und den Inhalt, können abgeleitet werden. So wie Daten können genutzt werden, um es zu verbessern oder die Benutzer Erfahrung zu verbessern das System und die Software.

Wenn du “Ich stimme zu” klickst, erlaubst du uns, die Cookies zu benutzen die Geräte Bezeichnung, den Web oder ähnliche Technologien zu benutzen. Deine Settings, können in deinem Gerät bei deinem Browser geändert werden.

Für den bestimmten Zweck, berechtigten Interessen beruhen darauf, mehr als auf den Inhalt. Du kannst mehr darüber in unseren Privaten und Cookie Politik lesen.